[[{"header":{"parameterUnit":"m.s-1","parameterCategory":2,"la1":30.2991,"la2":30.254,"lo1":-89.0895,"lo2":-89.0444,"dy":0.0017,"dx":0.0017,"nx":28,"ny":28,"refTime":"2025-04-30T03:00:00:Z","depth":"0","parameterNumber":2,"parameterNumberName":"U-component_of_CURRENTS"},"data":[0,0,0,0,0,0,0,0,0,0,0,0,0,0,0,0,0,0,0,0,0,0,0,0,0,0,0,0,0,0,0,0,0,0,0,0,0,0,0,0,0,0,0,0,0,0,0,0,0,0,0,0,0,0,0,0,0,0,-0.2503,-0.2504,0,-0.2536,-0.2537,-0.2537,-0.2504,-0.2502,-0.2501,-0.25,-0.2479,-0.248,-0.248,0,0,0,0,0,0,0,0,0,0,0,0,0,-0.244,-0.2441,-0.2503,-0.2504,-0.2505,-0.2536,-0.2537,-0.2537,-0.2504,-0.2502,-0.2501,-0.25,-0.2479,-0.248,-0.248,0,0,0,0,0,0,0,0,0,0,0,0,0,-0.2468,-0.2441,-0.2503,-0.2493,-0.2493,-0.2536,-0.2537,-0.2537,-0.2504,-0.2502,-0.2501,-0.2499,-0.2479,-0.2479,-0.248,-0.2519,0,0,-0.2483,-0.2483,0,0,0,0,0,0,0,0,-0.2467,-0.247,-0.2494,-0.2494,-0.2493,-0.2516,-0.2507,-0.2529,-0.2504,-0.2498,-0.25,-0.2498,-0.2489,-0.2489,-0.2497,-0.2518,-0.2518,-0.2483,-0.2483,-0.2483,-0.2484,0,0,0,0,0,0,0,-0.2465,-0.2469,-0.2515,-0.2495,-0.2494,-0.2497,-0.2498,-0.2511,-0.25,-0.2498,-0.2496,-0.2503,-0.2488,-0.2496,-0.2496,-0.2517,-0.2483,-0.2483,-0.2484,-0.2484,-0.2565,-0.2566,0,0,0,0,0,0,-0.2465,-0.2467,-0.2514,-0.2516,-0.2477,-0.2499,-0.2501,-0.2509,-0.2501,-0.2499,-0.2505,-0.2502,-0.2496,-0.2495,-0.2495,-0.2532,-0.2483,-0.2484,-0.2485,-0.2563,-0.2565,-0.2567,0,0,0,0,0,0,-0.2463,-0.2469,-0.2512,-0.2493,-0.2499,-0.2502,-0.2511,-0.251,-0.2511,-0.2507,-0.2503,-0.2505,-0.2494,-0.2494,-0.2511,-0.253,-0.2484,-0.2485,-0.2561,-0.2564,-0.2566,-0.261,0,0,0,0,0,0,-0.2461,-0.2468,-0.2469,-0.2494,-0.25,-0.2542,-0.2513,-0.2512,-0.2519,-0.2515,-0.2506,-0.2503,-0.2493,-0.251,-0.2511,-0.2531,-0.2486,-0.2559,-0.2562,-0.2565,-0.2607,-0.2614,-0.262,0,0,0,0,0,-0.2459,-0.2472,-0.2469,-0.2474,-0.2503,-0.2543,-0.2547,-0.2542,-0.2521,-0.2532,-0.2526,-0.2503,-0.2531,-0.2512,-0.2513,-0.2533,-0.2558,-0.2561,-0.2565,-0.2604,-0.2613,-0.262,0,0,0,0,0,0,-0.2441,-0.2471,-0.2467,-0.2486,-0.2513,-0.2538,-0.2545,-0.2545,-0.2551,-0.254,-0.2526,-0.2524,-0.2548,-0.2541,-0.252,-0.2568,-0.254,-0.2545,-0.2569,-0.2578,-0.2584,-0.2576,-0.2486,0,0,0,0,0,-0.2441,-0.2453,-0.2487,-0.2499,-0.2514,-0.2529,-0.2541,-0.2545,-0.2557,-0.2557,-0.2555,-0.2555,-0.257,-0.2571,-0.2583,-0.261,-0.2572,-0.2625,-0.2632,-0.2637,-0.2634,-0.2599,-0.2601,-0.258,-0.258,-0.2579,0,0,-0.2434,-0.2453,-0.2457,-0.2496,-0.2511,-0.2551,-0.2531,-0.2557,-0.2584,-0.2555,-0.2582,-0.2581,-0.2584,-0.2614,-0.2623,-0.2606,-0.2625,-0.2642,-0.2647,-0.264,-0.2603,-0.2605,-0.2606,-0.2582,-0.2582,-0.2581,0,0,-0.2444,-0.2449,-0.2471,-0.2502,-0.2538,-0.2557,-0.2566,-0.2599,-0.2603,-0.2639,-0.2624,-0.2632,-0.2658,-0.2659,-0.2664,-0.2718,-0.2665,-0.2727,-0.275,-0.2716,-0.2717,-0.2717,-0.2666,-0.2661,-0.2726,-0.2726,-0.2727,0,-0.2434,-0.2469,-0.2484,-0.2525,-0.255,-0.2563,-0.2603,-0.2625,-0.2657,-0.2663,-0.2651,-0.2677,-0.2678,-0.2703,-0.2726,-0.273,-0.2695,-0.2715,-0.2722,-0.2721,-0.272,-0.2668,-0.2662,-0.2729,-0.2729,-0.2728,-0.2728,0,-0.2471,-0.2502,-0.252,-0.2573,-0.2606,-0.2641,-0.2681,-0.2704,-0.2708,-0.2722,-0.2742,-0.2743,-0.2749,-0.2761,-0.2762,-0.277,-0.2741,-0.2734,-0.2693,-0.2724,-0.2668,-0.2661,-0.2733,-0.2732,-0.2731,-0.273,0,0,-0.2436,-0.2528,-0.2531,-0.2564,-0.2633,-0.2661,-0.2713,-0.2757,-0.2767,-0.2791,-0.2797,-0.2831,-0.281,-0.2815,-0.2809,-0.2788,-0.2758,-0.2764,-0.2761,-0.2699,-0.2666,-0.2573,-0.2555,-0.2747,-0.2747,-0.2746,-0.2626,0,-0.2456,-0.2534,-0.2578,-0.2644,-0.2686,-0.2724,-0.2768,-0.2805,-0.282,-0.2831,-0.2826,-0.2834,-0.2837,-0.283,-0.2815,-0.2775,-0.2743,-0.279,-0.2658,-0.2654,-0.2554,-0.2545,-0.2458,-0.2337,-0.2618,-0.2617,-0.2616,0,-0.2471,-0.2523,-0.2594,-0.2674,-0.2693,-0.2734,-0.278,-0.2824,-0.2851,-0.2857,-0.2859,-0.2851,-0.2842,-0.2829,-0.2761,-0.2789,-0.2734,-0.2694,-0.2688,-0.2578,-0.2546,-0.2354,-0.2313,-0.2305,-0.2604,-0.2605,-0.2606,0,-0.2423,-0.2525,-0.2576,-0.2608,-0.2706,-0.2731,-0.2773,-0.2818,-0.2837,-0.286,-0.2851,-0.2849,-0.282,-0.2774,-0.2704,-0.2729,-0.26,-0.2618,-0.2477,-0.2469,-0.2356,-0.2339,-0.2276,-0.2553,-0.2553,-0.2554,-0.2554,0,-0.2419,-0.2455,-0.2555,-0.2582,-0.2623,-0.2703,-0.2732,-0.2772,-0.281,-0.2812,-0.2847,-0.2818,-0.2804,-0.2735,-0.2685,-0.2541,-0.2577,-0.2465,-0.2429,-0.2369,-0.2356,-0.2313,-0.2344,-0.2549,-0.255,-0.2551,-0.2552,0,-0.2351,-0.2426,-0.2479,-0.2577,-0.2602,-0.2622,-0.2697,-0.271,-0.2763,-0.2759,-0.2762,-0.2773,-0.2685,-0.2638,-0.2541,-0.2487,-0.2332,-0.232,-0.2243,-0.2199,-0.207,-0.2107,-0.1988,-0.1933,-0.2148,-0.2145,-0.2143,0,-0.2321,-0.2345,-0.2439,-0.2454,-0.2493,-0.2542,-0.2567,-0.266,-0.2677,-0.2712,-0.269,-0.2636,-0.2547,-0.2372,-0.228,-0.2144,-0.2179,-0.2003,-0.204,-0.2031,-0.2046,-0.2086,-0.2054,-0.1908,-0.1903,-0.19,-0.1897,0,-0.2243,-0.2273,-0.2309,-0.2347,-0.2378,-0.2415,-0.2464,-0.2473,-0.2566,-0.2553,-0.2503,-0.2435,-0.2299,-0.212,-0.1979,-0.1904,-0.1965,-0.1924,-0.1937,-0.1862,-0.1878,-0.1818,-0.202,-0.1865,-0.1869,-0.1871,-0.1873,-0.1874,-0.215,-0.2147,-0.2189,-0.2207,-0.2244,-0.2252,-0.2227,-0.2281,-0.2268,-0.2225,-0.227,-0.2119,-0.2033,-0.1807,-0.1732,-0.1616,-0.1692,-0.1594,-0.1639,-0.168,-0.1628,-0.1749,-0.1545,-0.1546,-0.1547,-0.1548,-0.1549,0,-0.2019,-0.203,-0.2044,-0.2059,-0.2032,-0.2104,-0.212,-0.206,-0.1983,-0.1976,-0.1897,-0.1757,-0.1602,-0.155,-0.1444,-0.1372,-0.1368,-0.1361,-0.1423,-0.1403,-0.151,-0.1501,-0.1251,-0.1251,-0.1251,-0.1251,-0.1251,-0.1251,-0.195,-0.1911,-0.1922,-0.1833,-0.1836,-0.175,-0.1721,-0.1651,-0.1608,-0.1449,-0.1371,-0.1327,-0.1339,-0.1444,-0.136,-0.1296,-0.1299,-0.1245,-0.1284,-0.1406,-0.1434,-0.146,-0.1459,-0.1204,-0.1204,-0.1132,-0.1131,-0.1131]},{"header":{"parameterUnit":"m.s-1","parameterCategory":2,"la1":30.2991,"la2":30.254,"lo1":-89.0895,"lo2":-89.0444,"dy":0.0017,"dx":0.0017,"nx":28,"ny":28,"refTime":"2025-04-30T03:00:00:Z","depth":"0","parameterNumber":3,"parameterNumberName":"V-component_of_CURRENTS"},"data":[0,0,0,0,0,0,0,0,0,0,0,0,0,0,0,0,0,0,0,0,0,0,0,0,0,0,0,0,0,0,0,0,0,0,0,0,0,0,0,0,0,0,0,0,0,0,0,0,0,0,0,0,0,0,0,0,0,0,-0.0224,-0.0223,0,-0.014,-0.0139,-0.0138,-0.0076,-0.0075,-0.0075,-0.0074,0.0061,0.0064,0.0067,0,0,0,0,0,0,0,0,0,0,0,0,0,-0.0274,-0.0273,-0.0224,-0.0223,-0.0222,-0.014,-0.0139,-0.0138,-0.0076,-0.0075,-0.0075,-0.0074,0.006,0.0064,0.0068,0,0,0,0,0,0,0,0,0,0,0,0,0,-0.0226,-0.0273,-0.0224,-0.0182,-0.0178,-0.0141,-0.0139,-0.0137,-0.0076,-0.0075,-0.0075,-0.0074,0.0059,0.0063,0.0068,0.0086,0,0,0.0083,0.0085,0,0,0,0,0,0,0,0,-0.0229,-0.0224,-0.0189,-0.0185,-0.018,-0.0119,-0.0107,-0.0061,-0.0076,-0.0113,-0.0074,-0.0074,0.0004,0.0013,0.0029,0.0093,0.0098,0.0083,0.0086,0.0088,0.009,0,0,0,0,0,0,0,-0.0232,-0.0227,-0.0189,-0.0189,-0.0183,-0.0149,-0.0142,-0.0098,-0.0056,-0.011,-0.0105,-0.0099,0.0007,0.0025,0.0033,0.01,0.0083,0.0088,0.0091,0.0092,0.021,0.021,0,0,0,0,0,0,-0.025,-0.023,-0.0192,-0.0187,-0.0205,-0.0149,-0.0141,-0.0138,-0.0058,-0.0046,-0.01,-0.0096,0.0016,0.0027,0.0038,0.008,0.0088,0.0093,0.0096,0.021,0.021,0.021,0,0,0,0,0,0,-0.0251,-0.0247,-0.0195,-0.0208,-0.0199,-0.0149,-0.0146,-0.0137,-0.0119,-0.0051,-0.0038,-0.0092,0.0017,0.0031,0.0078,0.0085,0.0095,0.01,0.0209,0.021,0.021,0.0153,0,0,0,0,0,0,-0.0253,-0.0248,-0.0254,-0.0209,-0.0199,-0.0181,-0.0147,-0.0136,-0.0117,-0.0112,-0.0041,-0.0027,0.0018,0.007,0.0083,0.0092,0.0103,0.0209,0.021,0.021,0.0155,0.0151,0.0148,0,0,0,0,0,-0.0255,-0.0269,-0.0254,-0.025,-0.0208,-0.0182,-0.0174,-0.0135,-0.0118,-0.0116,-0.0063,-0.003,0.0082,0.0074,0.0089,0.0099,0.0209,0.0209,0.021,0.0156,0.0152,0.0148,0,0,0,0,0,0,-0.0294,-0.0263,-0.0246,-0.025,-0.0221,-0.0172,-0.0169,-0.0142,-0.01,-0.0094,-0.0027,-0.0011,0.0033,0.0072,0.0062,0.0134,0.0151,0.0155,0.0105,0.0102,0.0099,0.0087,0.0107,0,0,0,0,0,-0.0306,-0.0308,-0.027,-0.0273,-0.0263,-0.0217,-0.0202,-0.0177,-0.0134,-0.0115,-0.0064,-0.0007,0.0046,0.0076,0.0123,0.0162,0.0208,0.0179,0.0176,0.0173,0.0173,0.0248,0.0252,0.0212,0.0212,0.0212,0,0,-0.0322,-0.0306,-0.0306,-0.0281,-0.0256,-0.0247,-0.0206,-0.0192,-0.0176,-0.0107,-0.0072,-0.002,0.0052,0.0097,0.012,0.0132,0.0207,0.0174,0.0171,0.0173,0.0249,0.0253,0.0257,0.0212,0.0212,0.0212,0,0,-0.036,-0.034,-0.0356,-0.0337,-0.0309,-0.0276,-0.0276,-0.0231,-0.0202,-0.0165,-0.0107,-0.005,0.0019,0.0081,0.012,0.0129,0.0184,0.014,0.0121,0.0194,0.0198,0.0202,0.0254,0.0263,0.0143,0.0143,0.0143,0,-0.0381,-0.0392,-0.0356,-0.0364,-0.0351,-0.0295,-0.0302,-0.0264,-0.0207,-0.0177,-0.0164,-0.0039,0.0016,0.0095,0.0097,0.0123,0.0163,0.0128,0.019,0.0195,0.02,0.0253,0.0263,0.014,0.014,0.0141,0.0141,0,-0.0427,-0.0433,-0.044,-0.0427,-0.0407,-0.0406,-0.0351,-0.0322,-0.0281,-0.0232,-0.0158,-0.0077,-0.0001,0.0028,0.0065,0.0133,0.0149,0.0172,0.0196,0.02,0.0256,0.0268,0.0136,0.0137,0.0138,0.0139,0,0,-0.048,-0.0477,-0.0478,-0.0482,-0.0441,-0.0431,-0.0398,-0.0345,-0.0313,-0.0248,-0.0196,-0.01,-0.0052,-0.0005,0.0059,0.0125,0.0192,0.0156,0.0161,0.0201,0.0339,0.0368,0.0385,0.0225,0.0227,0.0228,0.0358,0,-0.0526,-0.0566,-0.0537,-0.0553,-0.0565,-0.0497,-0.0468,-0.0407,-0.0341,-0.0277,-0.0174,-0.0106,-0.0064,-0.0025,0.0047,0.0162,0.0224,0.0154,0.0334,0.0339,0.036,0.04,0.0446,0.0568,0.0371,0.0373,0.0374,0,-0.0579,-0.0597,-0.0635,-0.0615,-0.061,-0.0603,-0.0535,-0.05,-0.0387,-0.0332,-0.0241,-0.0159,-0.0045,-0.0018,0.0175,0.0127,0.0219,0.0304,0.0312,0.037,0.0393,0.0535,0.0598,0.0733,0.0394,0.0393,0.0391,0,-0.0644,-0.0658,-0.0691,-0.0688,-0.0658,-0.0648,-0.0617,-0.0521,-0.0477,-0.0365,-0.0318,-0.0175,-0.0091,0.0042,0.0212,0.0196,0.0422,0.0426,0.054,0.0542,0.0633,0.064,0.0846,0.0553,0.0553,0.0552,0.0552,0,-0.0707,-0.0729,-0.0729,-0.0749,-0.0767,-0.0714,-0.0695,-0.0637,-0.0539,-0.0473,-0.0358,-0.0266,-0.007,0.0083,0.0213,0.0423,0.0428,0.0549,0.0588,0.0613,0.0616,0.0779,0.081,0.0557,0.0556,0.0555,0.0554,0,-0.0775,-0.0777,-0.0815,-0.0808,-0.0806,-0.0818,-0.0765,-0.0737,-0.0639,-0.0549,-0.0515,-0.0314,-0.0103,0.0086,0.0334,0.0439,0.0713,0.0688,0.0693,0.073,0.094,0.0965,0.1181,0.1269,0.0833,0.0835,0.0836,0,-0.0814,-0.0847,-0.0875,-0.09,-0.0903,-0.0905,-0.0896,-0.0804,-0.0757,-0.0563,-0.0519,-0.0295,-0.0106,0.0252,0.0482,0.0724,0.0815,0.0889,0.0869,0.0976,0.1033,0.1039,0.1097,0.0966,0.0969,0.097,0.0972,0,-0.0882,-0.0894,-0.0927,-0.0988,-0.1004,-0.1007,-0.0979,-0.0949,-0.0808,-0.0689,-0.0479,-0.0308,0.0045,0.0373,0.0669,0.0811,0.0987,0.0934,0.107,0.1177,0.1177,0.1271,0.0835,0.0989,0.0987,0.0986,0.0985,0.0985,-0.0922,-0.0967,-0.1013,-0.1063,-0.1085,-0.1082,-0.1054,-0.0971,-0.0852,-0.0599,-0.0461,-0.0116,0.0282,0.0727,0.0876,0.1199,0.1144,0.13,0.1327,0.1327,0.1402,0.0984,0.1162,0.1161,0.1161,0.116,0.1159,0,-0.0966,-0.1014,-0.1077,-0.1126,-0.1154,-0.1144,-0.1081,-0.098,-0.0804,-0.0518,-0.0272,0.0271,0.0665,0.1018,0.1424,0.1591,0.162,0.1674,0.1715,0.1761,0.1435,0.1431,0.1647,0.1647,0.1646,0.1646,0.1646,0.1646,-0.0988,-0.1063,-0.1099,-0.1164,-0.1189,-0.1156,-0.11,-0.0895,-0.0654,-0.0165,0.0228,0.0515,0.0951,0.1539,0.1919,0.1953,0.2098,0.207,0.2145,0.1931,0.1898,0.1867,0.1876,0.2181,0.2181,0.2482,0.2485,0.2487]}],[{"header":{"parameterUnit":"m.s-1","parameterCategory":2,"la1":30.2991,"la2":30.254,"lo1":-89.0895,"lo2":-89.0444,"dy":0.0017,"dx":0.0017,"nx":28,"ny":28,"refTime":"2025-04-30T03:00:00:Z","depth":"2","parameterNumber":2,"parameterNumberName":"U-component_of_CURRENTS"},"data":[0,0,0,0,0,0,0,0,0,0,0,0,0,0,0,0,0,0,0,0,0,0,0,0,0,0,0,0,0,0,0,0,0,0,0,0,0,0,0,0,0,0,0,0,0,0,0,0,0,0,0,0,0,0,0,0,0,0,-0.2339,-0.234,0,-0.2368,-0.2368,-0.2368,-0.2341,-0.2341,-0.234,-0.2339,-0.2318,-0.2319,-0.2319,0,0,0,0,0,0,0,0,0,0,0,0,0,-0.2282,-0.2282,-0.2339,-0.234,-0.234,-0.2368,-0.2368,-0.2368,-0.2342,-0.234,-0.2339,-0.2338,-0.2318,-0.2319,-0.2319,0,0,0,0,0,0,0,0,0,0,0,0,0,-0.2306,-0.2283,-0.2339,-0.2332,-0.2331,-0.2368,-0.2368,-0.2368,-0.2342,-0.234,-0.2339,-0.2338,-0.2318,-0.2319,-0.2319,-0.2349,0,0,-0.232,-0.2321,0,0,0,0,0,0,0,0,-0.2305,-0.2308,-0.2332,-0.2332,-0.2332,-0.2351,-0.234,-0.236,-0.2342,-0.2336,-0.2339,-0.2337,-0.2327,-0.2327,-0.2333,-0.2348,-0.2347,-0.232,-0.2321,-0.2321,-0.2321,0,0,0,0,0,0,0,-0.2303,-0.2307,-0.2349,-0.2333,-0.2333,-0.2334,-0.2336,-0.2344,-0.2336,-0.2336,-0.2335,-0.2342,-0.2326,-0.2333,-0.2332,-0.2347,-0.232,-0.2321,-0.2321,-0.2321,-0.2388,-0.239,0,0,0,0,0,0,-0.2304,-0.2305,-0.2348,-0.235,-0.2317,-0.2336,-0.2338,-0.2345,-0.2337,-0.2336,-0.2343,-0.234,-0.2333,-0.2332,-0.2331,-0.2367,-0.2321,-0.2321,-0.2322,-0.2387,-0.2389,-0.239,0,0,0,0,0,0,-0.2303,-0.2308,-0.2347,-0.2329,-0.2335,-0.2339,-0.2347,-0.2346,-0.2349,-0.2343,-0.234,-0.2345,-0.2332,-0.2331,-0.2345,-0.2366,-0.2322,-0.2322,-0.2385,-0.2387,-0.2389,-0.2437,0,0,0,0,0,0,-0.2301,-0.2307,-0.2309,-0.233,-0.2336,-0.2373,-0.2348,-0.2348,-0.2356,-0.2353,-0.2345,-0.2342,-0.2331,-0.2345,-0.2346,-0.2365,-0.2322,-0.2383,-0.2386,-0.2389,-0.2434,-0.2441,-0.2447,0,0,0,0,0,-0.2299,-0.2311,-0.2309,-0.2314,-0.234,-0.2374,-0.2378,-0.2374,-0.2358,-0.2369,-0.2363,-0.2342,-0.2363,-0.2347,-0.2347,-0.2367,-0.2382,-0.2385,-0.2389,-0.2431,-0.244,-0.2447,0,0,0,0,0,0,-0.2285,-0.2311,-0.2308,-0.2326,-0.235,-0.237,-0.2378,-0.2379,-0.2384,-0.2376,-0.2362,-0.236,-0.2381,-0.2373,-0.2355,-0.2397,-0.2369,-0.2373,-0.2401,-0.2409,-0.2416,-0.2407,-0.2323,0,0,0,0,0,-0.2285,-0.2297,-0.2327,-0.2338,-0.2352,-0.2365,-0.2376,-0.238,-0.2391,-0.2391,-0.2389,-0.2389,-0.2399,-0.2401,-0.2409,-0.2433,-0.2397,-0.2447,-0.2454,-0.2459,-0.2455,-0.2425,-0.2427,-0.2401,-0.2401,-0.2401,0,0,-0.2281,-0.2297,-0.2302,-0.2336,-0.2349,-0.2383,-0.2368,-0.2392,-0.2415,-0.2389,-0.2413,-0.2413,-0.2412,-0.2439,-0.2447,-0.2431,-0.2449,-0.2464,-0.2468,-0.246,-0.2428,-0.243,-0.2432,-0.2404,-0.2403,-0.2403,0,0,-0.229,-0.2296,-0.2316,-0.2343,-0.2375,-0.2392,-0.2401,-0.243,-0.2435,-0.2467,-0.2453,-0.2461,-0.2483,-0.2482,-0.2485,-0.2534,-0.2487,-0.2544,-0.2566,-0.2538,-0.2539,-0.254,-0.2495,-0.2491,-0.2544,-0.2544,-0.2544,0,-0.2283,-0.2312,-0.2327,-0.2362,-0.2384,-0.2398,-0.2432,-0.2452,-0.2481,-0.2487,-0.2479,-0.2502,-0.2501,-0.2522,-0.2543,-0.2547,-0.2517,-0.2534,-0.2544,-0.2544,-0.2544,-0.2497,-0.2492,-0.2547,-0.2547,-0.2546,-0.2546,0,-0.2315,-0.2341,-0.2357,-0.2402,-0.2431,-0.2462,-0.2498,-0.252,-0.2527,-0.254,-0.2561,-0.2561,-0.2567,-0.2579,-0.2578,-0.2588,-0.2563,-0.2555,-0.2517,-0.2548,-0.2498,-0.2492,-0.2551,-0.255,-0.2549,-0.2548,0,0,-0.2285,-0.2363,-0.2366,-0.2392,-0.2454,-0.2477,-0.2524,-0.2563,-0.2575,-0.26,-0.2607,-0.2638,-0.2624,-0.2627,-0.2623,-0.2606,-0.2584,-0.2586,-0.2584,-0.253,-0.2507,-0.2414,-0.2398,-0.2578,-0.2577,-0.2577,-0.2471,0,-0.23,-0.2364,-0.2403,-0.2458,-0.2492,-0.2528,-0.2568,-0.2603,-0.262,-0.2633,-0.2632,-0.2643,-0.2647,-0.2645,-0.2634,-0.2599,-0.2571,-0.2613,-0.2495,-0.2491,-0.2395,-0.2389,-0.224,-0.2126,-0.2464,-0.2463,-0.2462,0,-0.231,-0.2353,-0.2412,-0.2479,-0.2496,-0.2533,-0.2576,-0.2616,-0.2646,-0.2656,-0.2664,-0.2661,-0.2657,-0.2646,-0.2589,-0.2615,-0.2567,-0.2532,-0.2526,-0.2415,-0.2386,-0.2152,-0.2102,-0.2451,-0.2452,-0.2453,-0.2454,0,-0.2265,-0.2351,-0.2392,-0.2419,-0.2504,-0.2528,-0.2568,-0.2613,-0.2631,-0.2661,-0.2658,-0.2662,-0.2641,-0.2602,-0.2542,-0.2565,-0.2451,-0.2468,-0.2333,-0.2325,-0.2161,-0.2139,-0.241,-0.241,-0.241,-0.241,-0.2411,0,-0.2256,-0.2284,-0.2373,-0.2395,-0.2429,-0.2503,-0.2532,-0.2571,-0.2612,-0.2616,-0.2656,-0.2634,-0.2628,-0.257,-0.2526,-0.2395,-0.2432,-0.2321,-0.2288,-0.2174,-0.2156,-0.2414,-0.2416,-0.2406,-0.2407,-0.2408,-0.2409,0,-0.2191,-0.2257,-0.2299,-0.2386,-0.2409,-0.2428,-0.25,-0.2513,-0.257,-0.257,-0.2577,-0.2595,-0.2521,-0.2483,-0.2398,-0.2346,-0.2251,-0.2193,-0.2052,-0.2004,-0.215,-0.2156,-0.2036,-0.2032,-0.2028,-0.2025,-0.2023,0,-0.2161,-0.2179,-0.2261,-0.2273,-0.2309,-0.2355,-0.2377,-0.2468,-0.2483,-0.2527,-0.2507,-0.2467,-0.2388,-0.2232,-0.2141,-0.2016,-0.2115,-0.1823,-0.1844,-0.213,-0.211,-0.2122,-0.2133,-0.1644,-0.1639,-0.1634,-0.1631,0,-0.2083,-0.2112,-0.214,-0.2171,-0.2199,-0.2229,-0.2275,-0.2283,-0.2374,-0.2367,-0.2326,-0.2268,-0.2144,-0.1943,-0.1811,-0.1735,-0.1839,-0.1728,-0.2036,-0.1771,-0.1754,-0.1737,-0.1762,-0.1591,-0.1595,-0.1598,-0.16,-0.1602,-0.1996,-0.199,-0.2023,-0.2036,-0.207,-0.2073,-0.2044,-0.2095,-0.2082,-0.2039,-0.209,-0.193,-0.1894,-0.1583,-0.1483,-0.1414,-0.1544,-0.1493,-0.1509,-0.153,-0.1513,-0.1491,-0.1274,-0.1276,-0.1278,-0.128,-0.1281,0,-0.1871,-0.1876,-0.1884,-0.189,-0.186,-0.1932,-0.194,-0.187,-0.1795,-0.1781,-0.1707,-0.1446,-0.1314,-0.1279,-0.1105,-0.1073,-0.1092,-0.104,-0.1078,-0.1116,-0.1151,-0.1118,-0.0773,-0.0772,-0.077,-0.0769,0,0,-0.1804,-0.1758,-0.1763,-0.1669,-0.1671,-0.158,-0.1549,-0.1467,-0.1411,-0.1241,-0.1146,-0.122,-0.1215,-0.0985,-0.0943,-0.0827,-0.0964,-0.0783,-0.1189,-0.127,-0.1303,-0.1405,-0.1396,0,0,0,0,0]},{"header":{"parameterUnit":"m.s-1","parameterCategory":2,"la1":30.2991,"la2":30.254,"lo1":-89.0895,"lo2":-89.0444,"dy":0.0017,"dx":0.0017,"nx":28,"ny":28,"refTime":"2025-04-30T03:00:00:Z","depth":"2","parameterNumber":3,"parameterNumberName":"V-component_of_CURRENTS"},"data":[0,0,0,0,0,0,0,0,0,0,0,0,0,0,0,0,0,0,0,0,0,0,0,0,0,0,0,0,0,0,0,0,0,0,0,0,0,0,0,0,0,0,0,0,0,0,0,0,0,0,0,0,0,0,0,0,0,0,-0.0303,-0.0302,0,-0.0226,-0.0225,-0.0224,-0.0166,-0.0165,-0.0165,-0.0165,-0.0043,-0.004,-0.0037,0,0,0,0,0,0,0,0,0,0,0,0,0,-0.0353,-0.0353,-0.0303,-0.0302,-0.0301,-0.0226,-0.0225,-0.0223,-0.0166,-0.0165,-0.0165,-0.0164,-0.0044,-0.004,-0.0037,0,0,0,0,0,0,0,0,0,0,0,0,0,-0.0308,-0.0353,-0.0303,-0.0264,-0.026,-0.0226,-0.0224,-0.0223,-0.0166,-0.0165,-0.0165,-0.0164,-0.0045,-0.0041,-0.0036,-0.0021,0,0,-0.0023,-0.0021,0,0,0,0,0,0,0,0,-0.0311,-0.0306,-0.0271,-0.0267,-0.0262,-0.0206,-0.0198,-0.0154,-0.0166,-0.02,-0.0165,-0.0164,-0.0095,-0.0086,-0.0072,-0.0016,-0.0011,-0.0023,-0.002,-0.0018,-0.0017,0,0,0,0,0,0,0,-0.0314,-0.0309,-0.0271,-0.027,-0.0265,-0.0235,-0.0228,-0.0189,-0.015,-0.0197,-0.0193,-0.0187,-0.0092,-0.0076,-0.0068,-0.0009,-0.0023,-0.0019,-0.0016,-0.0015,0.0085,0.0086,0,0,0,0,0,0,-0.033,-0.0312,-0.0273,-0.0269,-0.0287,-0.0235,-0.0227,-0.0223,-0.0151,-0.014,-0.0188,-0.0185,-0.0084,-0.0073,-0.0064,-0.003,-0.0018,-0.0014,-0.0012,0.0085,0.0085,0.0086,0,0,0,0,0,0,-0.0331,-0.0327,-0.0276,-0.029,-0.0281,-0.0235,-0.0231,-0.0222,-0.0206,-0.0144,-0.0132,-0.0181,-0.0083,-0.007,-0.0029,-0.0025,-0.0012,-0.0008,0.0085,0.0085,0.0086,0.003,0,0,0,0,0,0,-0.0333,-0.0328,-0.0332,-0.0291,-0.0281,-0.0264,-0.0232,-0.0221,-0.0204,-0.0199,-0.0135,-0.0123,-0.0081,-0.0036,-0.0025,-0.0019,-0.0005,0.0085,0.0085,0.0085,0.0032,0.0028,0.0025,0,0,0,0,0,-0.0335,-0.0347,-0.0333,-0.0328,-0.0288,-0.0265,-0.0257,-0.0221,-0.0205,-0.0203,-0.0156,-0.0125,-0.0027,-0.0033,-0.002,-0.0012,0.0085,0.0085,0.0085,0.0033,0.0029,0.0025,0,0,0,0,0,0,-0.037,-0.0341,-0.0325,-0.0327,-0.0301,-0.0256,-0.0252,-0.0227,-0.019,-0.0184,-0.0124,-0.0109,-0.0072,-0.0037,-0.0044,0.0017,0.0034,0.0037,-0.001,-0.0013,-0.0017,-0.0029,-0.0002,0,0,0,0,0,-0.0382,-0.0382,-0.0347,-0.0348,-0.0339,-0.0297,-0.0283,-0.026,-0.0221,-0.0204,-0.0158,-0.0107,-0.0062,-0.0035,0.0006,0.004,0.0083,0.0053,0.005,0.0047,0.0045,0.0117,0.0121,0.0086,0.0086,0.0086,0,0,-0.0395,-0.038,-0.038,-0.0356,-0.0333,-0.0327,-0.0287,-0.0273,-0.0261,-0.0197,-0.0168,-0.0121,-0.0057,-0.002,0.0,0.0012,0.0078,0.0047,0.0044,0.0044,0.0118,0.0122,0.0125,0.0086,0.0086,0.0086,0,0,-0.043,-0.0411,-0.0426,-0.0409,-0.0383,-0.0354,-0.0354,-0.0312,-0.0286,-0.0255,-0.0203,-0.0153,-0.0092,-0.0038,-0.0004,-0.0001,0.0054,0.0009,-0.001,0.0059,0.0063,0.0067,0.0117,0.0126,0.0013,0.0013,0.0012,0,-0.0449,-0.046,-0.0426,-0.0434,-0.0424,-0.0371,-0.0381,-0.0347,-0.0296,-0.0269,-0.0256,-0.0147,-0.0098,-0.0031,-0.0031,-0.0007,0.0033,-0.0002,0.0055,0.006,0.0065,0.0116,0.0126,0.001,0.001,0.0011,0.0011,0,-0.0494,-0.05,-0.0507,-0.0498,-0.0481,-0.0481,-0.0432,-0.0408,-0.037,-0.0326,-0.0262,-0.0189,-0.0121,-0.0097,-0.0062,-0.0003,0.0014,0.0038,0.0063,0.0065,0.0119,0.013,0.0006,0.0007,0.0008,0.0009,0,0,-0.0541,-0.0541,-0.0543,-0.055,-0.0515,-0.0507,-0.0482,-0.0437,-0.0411,-0.0351,-0.0307,-0.0223,-0.0175,-0.0134,-0.0075,-0.0013,0.0051,0.0019,0.0024,0.0064,0.0193,0.0217,0.0232,0.0085,0.0086,0.0088,0.0214,0,-0.0586,-0.0628,-0.0602,-0.0623,-0.0638,-0.0577,-0.0555,-0.0503,-0.0443,-0.0386,-0.0292,-0.0231,-0.019,-0.0154,-0.0086,0.0021,0.008,0.0014,0.019,0.0195,0.0213,0.0247,0.0205,0.0315,0.0226,0.0228,0.0229,0,-0.0638,-0.0658,-0.0698,-0.0687,-0.0684,-0.0681,-0.0626,-0.0597,-0.0495,-0.0445,-0.0361,-0.0284,-0.0179,-0.015,0.0032,-0.0013,0.0078,0.0158,0.0166,0.0216,0.0241,0.0303,0.0341,0.025,0.0248,0.0247,0.0245,0,-0.0699,-0.0718,-0.0755,-0.0754,-0.0733,-0.0728,-0.0703,-0.0619,-0.0581,-0.0478,-0.0435,-0.0302,-0.0222,-0.0094,0.0069,0.0054,0.0268,0.0274,0.038,0.0382,0.0397,0.0398,0.0396,0.0396,0.0395,0.0395,0.0395,0,-0.0761,-0.0786,-0.0791,-0.0813,-0.0836,-0.0791,-0.078,-0.0729,-0.0642,-0.0584,-0.0474,-0.0392,-0.0203,-0.0057,0.007,0.0268,0.0275,0.0387,0.0425,0.0375,0.0372,0.0354,0.0347,0.04,0.0399,0.0398,0.0397,0,-0.0826,-0.083,-0.0873,-0.0874,-0.0874,-0.0889,-0.0847,-0.0825,-0.0737,-0.0658,-0.0626,-0.0438,-0.0238,-0.0055,0.0182,0.0282,0.0457,0.0519,0.0439,0.0466,0.0518,0.0507,0.065,0.0653,0.0654,0.0656,0.0657,0,-0.0864,-0.0898,-0.0931,-0.0958,-0.0964,-0.0973,-0.0969,-0.0889,-0.0849,-0.0674,-0.0635,-0.0424,-0.025,0.0091,0.0304,0.0535,0.0529,0.0617,0.0585,0.0526,0.0549,0.0535,0.0522,0.058,0.058,0.0581,0.0581,0,-0.0932,-0.0944,-0.0979,-0.1043,-0.1064,-0.1073,-0.1054,-0.1031,-0.0905,-0.0799,-0.0609,-0.0452,-0.0125,0.0144,0.0425,0.0548,0.0573,0.0633,0.0624,0.0514,0.0468,0.0487,0.0475,0.0585,0.0584,0.0584,0.0584,0.0584,-0.0971,-0.1017,-0.1064,-0.1116,-0.1144,-0.1149,-0.1133,-0.1064,-0.0963,-0.0756,-0.0608,-0.0329,-0.0108,0.0322,0.0493,0.065,0.0657,0.0684,0.0679,0.0675,0.0637,0.0596,0.0729,0.0729,0.0729,0.073,0.073,0,-0.1016,-0.1064,-0.1128,-0.1181,-0.1215,-0.1209,-0.1165,-0.1096,-0.0949,-0.0732,-0.0511,-0.0226,0.0078,0.0306,0.0559,0.0701,0.0672,0.0712,0.0638,0.0634,0.063,0.0587,0.0667,0.0667,0.0668,0.0668,0,0,-0.104,-0.1114,-0.115,-0.1222,-0.1252,-0.124,-0.1201,-0.106,-0.0888,-0.0655,-0.0428,-0.015,0.0117,0.0277,0.0439,0.0563,0.0558,0.0569,0.0605,0.0492,0.0487,0.0602,0.0529,0,0,0,0,0]}],[{"header":{"parameterUnit":"m.s-1","parameterCategory":2,"la1":30.2991,"la2":30.254,"lo1":-89.0895,"lo2":-89.0444,"dy":0.0017,"dx":0.0017,"nx":28,"ny":28,"refTime":"2025-04-30T03:00:00:Z","depth":"4","parameterNumber":2,"parameterNumberName":"U-component_of_CURRENTS"},"data":[0,0,0,0,0,0,0,0,0,0,0,0,0,0,0,0,0,0,0,0,0,0,0,0,0,0,0,0,0,0,0,0,0,0,0,0,0,0,0,0,0,0,0,0,0,0,0,0,0,0,0,0,0,0,0,0,0,0,-0.1643,-0.1644,0,-0.1698,-0.1698,-0.1699,-0.1729,-0.1729,-0.1729,-0.1729,-0.1763,-0.1763,-0.1764,0,0,0,0,0,0,0,0,0,0,0,0,0,-0.1563,-0.1564,-0.1643,-0.1644,-0.1645,-0.1698,-0.1698,-0.1699,-0.1729,-0.1729,-0.1729,-0.1729,-0.1763,-0.1763,-0.1764,0,0,0,0,0,0,0,0,0,0,0,0,0,-0.1604,-0.1564,-0.1643,-0.1667,-0.167,-0.1698,-0.1698,-0.1699,-0.1729,-0.1729,-0.1729,-0.173,-0.1762,-0.1763,-0.1764,-0.1764,0,0,-0.1767,-0.1768,0,0,0,0,0,0,0,0,-0.1602,-0.1607,-0.1663,-0.1666,-0.1669,-0.1708,-0.1683,-0.172,-0.1728,-0.1704,-0.1729,-0.173,-0.1743,-0.1746,-0.1753,-0.1765,-0.1767,-0.1767,-0.1768,-0.1768,-0.1769,0,0,0,0,0,0,0,-0.1599,-0.1604,-0.1663,-0.1664,-0.1667,-0.1675,-0.1681,-0.169,-0.172,-0.1707,-0.1709,-0.1718,-0.1745,-0.1752,-0.1754,-0.1767,-0.1767,-0.1768,-0.1769,-0.1769,-0.1844,-0.1845,0,0,0,0,0,0,-0.1595,-0.1602,-0.1661,-0.1665,-0.1637,-0.1676,-0.1683,-0.1694,-0.172,-0.1725,-0.1718,-0.1719,-0.175,-0.1753,-0.1756,-0.1818,-0.1768,-0.1769,-0.177,-0.1842,-0.1844,-0.1845,0,0,0,0,0,0,-0.1593,-0.16,-0.1659,-0.1636,-0.1644,-0.1678,-0.1689,-0.1695,-0.1729,-0.1729,-0.1733,-0.1749,-0.1751,-0.1754,-0.179,-0.1817,-0.177,-0.1771,-0.1841,-0.1843,-0.1845,-0.1904,0,0,0,0,0,0,-0.1591,-0.1599,-0.1619,-0.1636,-0.1645,-0.1694,-0.1689,-0.1696,-0.1733,-0.1736,-0.1757,-0.1759,-0.1751,-0.1789,-0.1791,-0.1818,-0.1772,-0.1839,-0.1842,-0.1844,-0.19,-0.1908,-0.1914,0,0,0,0,0,-0.1588,-0.161,-0.1619,-0.1627,-0.1667,-0.1696,-0.1702,-0.1725,-0.1734,-0.1755,-0.1772,-0.176,-0.1806,-0.1791,-0.1793,-0.1821,-0.1838,-0.1841,-0.1844,-0.1897,-0.1906,-0.1914,0,0,0,0,0,0,-0.1587,-0.1615,-0.1626,-0.1657,-0.1684,-0.1702,-0.1728,-0.1741,-0.1772,-0.1782,-0.1779,-0.1783,-0.1823,-0.1816,-0.1799,-0.185,-0.1819,-0.1823,-0.1859,-0.1868,-0.1874,-0.1864,-0.1772,0,0,0,0,0,-0.1595,-0.1619,-0.1645,-0.1672,-0.1689,-0.1713,-0.1733,-0.175,-0.1773,-0.1788,-0.1804,-0.1819,-0.1833,-0.1847,-0.1857,-0.1888,-0.1858,-0.1907,-0.1914,-0.192,-0.1913,-0.1897,-0.1901,-0.1856,-0.1855,-0.1855,0,0,-0.1603,-0.1622,-0.1637,-0.1674,-0.1697,-0.1726,-0.1727,-0.1767,-0.1795,-0.1786,-0.1838,-0.1847,-0.1847,-0.1881,-0.1898,-0.1883,-0.1919,-0.1923,-0.1928,-0.1918,-0.1901,-0.1905,-0.1909,-0.1858,-0.1857,-0.1857,0,0,-0.162,-0.1649,-0.1673,-0.1699,-0.174,-0.1755,-0.1773,-0.1811,-0.1835,-0.188,-0.1879,-0.1904,-0.1936,-0.1936,-0.1938,-0.1989,-0.1956,-0.2003,-0.2031,-0.2017,-0.202,-0.2022,-0.1992,-0.1991,-0.2007,-0.2007,-0.2007,0,-0.1631,-0.166,-0.1686,-0.1715,-0.174,-0.1772,-0.1802,-0.1831,-0.1878,-0.1895,-0.1906,-0.1948,-0.1955,-0.1976,-0.2,-0.2003,-0.1987,-0.1999,-0.2024,-0.2026,-0.2027,-0.1995,-0.1993,-0.201,-0.201,-0.201,-0.2009,0,-0.1656,-0.1692,-0.1711,-0.1756,-0.1787,-0.1822,-0.186,-0.19,-0.1933,-0.1953,-0.1997,-0.2008,-0.2027,-0.2041,-0.204,-0.206,-0.2042,-0.2034,-0.1999,-0.2035,-0.2,-0.1997,-0.2015,-0.2014,-0.2013,-0.2012,0,0,-0.1638,-0.1714,-0.1722,-0.1749,-0.1812,-0.1835,-0.189,-0.1934,-0.1963,-0.2012,-0.2039,-0.2076,-0.2084,-0.2086,-0.209,-0.2085,-0.2088,-0.2074,-0.2072,-0.2037,-0.2049,-0.1911,-0.1894,-0.209,-0.209,-0.2089,-0.202,0,-0.1649,-0.1703,-0.1743,-0.1799,-0.1827,-0.1877,-0.1921,-0.1968,-0.2006,-0.2043,-0.206,-0.2091,-0.2101,-0.2116,-0.2116,-0.2096,-0.2083,-0.2106,-0.2025,-0.2022,-0.1889,-0.1887,-0.2089,-0.2017,-0.2017,-0.2016,-0.2016,0,-0.1648,-0.1686,-0.1742,-0.1812,-0.1831,-0.1875,-0.1938,-0.1983,-0.2037,-0.2067,-0.21,-0.2114,-0.2131,-0.2129,-0.2104,-0.2123,-0.2093,-0.2068,-0.2065,-0.1909,-0.1877,-0.1974,-0.201,-0.201,-0.201,-0.2011,-0.2011,0,-0.1595,-0.1679,-0.1723,-0.1749,-0.1837,-0.1877,-0.1927,-0.1991,-0.202,-0.2083,-0.2097,-0.2127,-0.2132,-0.2114,-0.208,-0.2099,-0.2025,-0.2039,-0.1879,-0.1869,-0.199,-0.1988,-0.2004,-0.2004,-0.2004,-0.2004,-0.2004,0,-0.1565,-0.1603,-0.1709,-0.173,-0.178,-0.1858,-0.1909,-0.1962,-0.2025,-0.2038,-0.2106,-0.2096,-0.213,-0.2096,-0.2071,-0.1949,-0.2015,-0.1867,-0.1836,-0.2017,-0.2019,-0.1987,-0.1986,-0.2001,-0.2002,-0.2003,-0.2003,0,-0.1488,-0.1564,-0.1615,-0.1721,-0.1756,-0.1791,-0.1891,-0.1913,-0.1995,-0.2009,-0.2028,-0.2072,-0.2024,-0.2017,-0.1969,-0.1906,-0.1825,-0.1765,-0.1941,-0.1925,-0.1685,-0.1689,-0.1581,-0.1575,-0.1571,-0.1567,-0.1563,0,-0.1447,-0.1469,-0.1586,-0.1613,-0.1665,-0.1736,-0.1771,-0.1879,-0.1895,-0.1963,-0.1943,-0.194,-0.1945,-0.1748,-0.1781,-0.1694,-0.1677,-0.1631,-0.1675,-0.1657,-0.164,-0.165,-0.166,-0.1556,-0.1554,-0.1553,-0.1552,0,-0.1356,-0.1415,-0.1453,-0.1511,-0.1563,-0.1606,-0.167,-0.1668,-0.1768,-0.1861,-0.179,-0.1749,-0.168,-0.1637,-0.1569,-0.1521,-0.1665,-0.1582,-0.1593,-0.1634,-0.1626,-0.1615,-0.163,-0.1536,-0.1538,-0.1539,-0.154,0,-0.1281,-0.1285,-0.1344,-0.1377,-0.1441,-0.1445,-0.1502,-0.1508,-0.1539,-0.163,-0.1598,-0.1598,-0.165,-0.1543,-0.1487,-0.1418,-0.1408,-0.1374,-0.1396,-0.1414,-0.1393,-0.1361,-0.1143,0,0,0,0,0,-0.1193,-0.1177,-0.12,-0.1226,-0.1286,-0.1316,-0.141,-0.1471,-0.1574,-0.1472,-0.1531,-0.1461,-0.1377,-0.1388,-0.1278,-0.1418,-0.1419,-0.1288,-0.1394,-0.1445,-0.1464,-0.1455,0,0,0,0,0,0,-0.1131,-0.1145,-0.1147,-0.1091,-0.1078,-0.112,-0.1172,-0.1247,-0.1206,-0.1316,-0.1269,-0.1358,-0.1291,-0.1389,-0.1236,-0.1239,-0.1274,-0.1308,-0.1304,-0.1434,-0.1451,-0.1466,-0.1464,0,0,0,0,0]},{"header":{"parameterUnit":"m.s-1","parameterCategory":2,"la1":30.2991,"la2":30.254,"lo1":-89.0895,"lo2":-89.0444,"dy":0.0017,"dx":0.0017,"nx":28,"ny":28,"refTime":"2025-04-30T03:00:00:Z","depth":"4","parameterNumber":3,"parameterNumberName":"V-component_of_CURRENTS"},"data":[0,0,0,0,0,0,0,0,0,0,0,0,0,0,0,0,0,0,0,0,0,0,0,0,0,0,0,0,0,0,0,0,0,0,0,0,0,0,0,0,0,0,0,0,0,0,0,0,0,0,0,0,0,0,0,0,0,0,-0.0257,-0.0257,0,-0.0208,-0.0208,-0.0207,-0.0173,-0.0173,-0.0173,-0.0173,-0.0094,-0.0092,-0.009,0,0,0,0,0,0,0,0,0,0,0,0,0,-0.0292,-0.0292,-0.0258,-0.0257,-0.0256,-0.0209,-0.0208,-0.0207,-0.0173,-0.0173,-0.0173,-0.0173,-0.0094,-0.0092,-0.009,0,0,0,0,0,0,0,0,0,0,0,0,0,-0.0263,-0.0292,-0.0258,-0.0235,-0.0232,-0.0209,-0.0208,-0.0207,-0.0174,-0.0173,-0.0173,-0.0173,-0.0095,-0.0092,-0.0089,-0.0076,0,0,-0.008,-0.0079,0,0,0,0,0,0,0,0,-0.0264,-0.0261,-0.0239,-0.0236,-0.0233,-0.0198,-0.0191,-0.0162,-0.0174,-0.0195,-0.0173,-0.0173,-0.0126,-0.0121,-0.0111,-0.0072,-0.0069,-0.008,-0.0078,-0.0077,-0.0076,0,0,0,0,0,0,0,-0.0266,-0.0263,-0.0237,-0.0238,-0.0235,-0.0217,-0.0212,-0.0185,-0.0161,-0.0193,-0.0191,-0.0187,-0.0125,-0.0114,-0.0109,-0.0068,-0.008,-0.0077,-0.0076,-0.0074,-0.0015,-0.0015,0,0,0,0,0,0,-0.0276,-0.0265,-0.0239,-0.0236,-0.025,-0.0216,-0.0211,-0.0209,-0.0162,-0.0155,-0.0187,-0.0185,-0.0119,-0.0113,-0.0106,-0.0093,-0.0077,-0.0074,-0.0072,-0.0015,-0.0015,-0.0015,0,0,0,0,0,0,-0.0277,-0.0274,-0.0241,-0.025,-0.0245,-0.0216,-0.0213,-0.0208,-0.0201,-0.0158,-0.015,-0.0186,-0.0119,-0.011,-0.0086,-0.0089,-0.0073,-0.007,-0.0014,-0.0015,-0.0015,-0.0063,0,0,0,0,0,0,-0.0278,-0.0275,-0.028,-0.0251,-0.0244,-0.0235,-0.0213,-0.0207,-0.0199,-0.0196,-0.0155,-0.0147,-0.0118,-0.0091,-0.0083,-0.0085,-0.0068,-0.0014,-0.0015,-0.0015,-0.0062,-0.0065,-0.0068,0,0,0,0,0,-0.028,-0.0288,-0.0281,-0.0278,-0.0251,-0.0235,-0.0231,-0.0209,-0.0199,-0.02,-0.0171,-0.0148,-0.0088,-0.0089,-0.008,-0.0081,-0.0014,-0.0014,-0.0015,-0.006,-0.0065,-0.0068,0,0,0,0,0,0,-0.0304,-0.0284,-0.0276,-0.0277,-0.0262,-0.023,-0.023,-0.0215,-0.0192,-0.0191,-0.0149,-0.014,-0.0121,-0.0095,-0.0097,-0.0065,-0.0048,-0.0046,-0.0085,-0.0089,-0.0092,-0.0102,-0.0065,0,0,0,0,0,-0.0313,-0.0315,-0.0291,-0.0293,-0.0288,-0.0261,-0.0253,-0.0239,-0.0214,-0.0205,-0.0175,-0.0143,-0.0115,-0.0098,-0.0072,-0.0053,-0.0016,-0.0048,-0.0051,-0.0055,-0.0056,0.0001,0.0002,-0.0016,-0.0016,-0.0016,0,0,-0.0323,-0.0313,-0.0314,-0.0299,-0.0285,-0.0285,-0.0256,-0.0249,-0.0247,-0.0199,-0.0189,-0.0156,-0.0114,-0.0095,-0.0083,-0.0072,-0.0032,-0.0055,-0.0058,-0.0058,0.0001,0.0002,0.0004,-0.0017,-0.0017,-0.0017,0,0,-0.0348,-0.0336,-0.0348,-0.034,-0.0326,-0.0308,-0.031,-0.0283,-0.027,-0.0255,-0.0219,-0.0188,-0.0151,-0.0116,-0.0095,-0.01,-0.0055,-0.0095,-0.0115,-0.006,-0.0058,-0.0055,-0.0013,-0.0007,-0.0093,-0.0093,-0.0093,0,-0.0362,-0.0374,-0.0349,-0.0359,-0.0358,-0.0322,-0.0335,-0.0316,-0.0285,-0.0271,-0.026,-0.0193,-0.016,-0.0121,-0.0125,-0.0108,-0.0073,-0.0103,-0.0064,-0.0061,-0.0057,-0.0015,-0.0007,-0.0095,-0.0095,-0.0095,-0.0095,0,-0.0395,-0.0407,-0.0413,-0.0415,-0.0407,-0.0413,-0.0384,-0.0374,-0.0352,-0.0325,-0.0288,-0.0236,-0.0193,-0.0178,-0.0154,-0.0115,-0.0098,-0.0078,-0.0054,-0.0058,-0.0013,-0.0004,-0.0099,-0.0098,-0.0097,-0.0097,0,0,-0.0423,-0.0436,-0.044,-0.0454,-0.0439,-0.0437,-0.0431,-0.041,-0.04,-0.0361,-0.0337,-0.0285,-0.0247,-0.022,-0.0177,-0.013,-0.008,-0.01,-0.0096,-0.006,0.0035,0.0017,0.0025,-0.0051,-0.005,-0.0049,0.0055,0,-0.0459,-0.05,-0.0488,-0.0519,-0.0536,-0.0503,-0.0499,-0.0472,-0.0435,-0.0402,-0.0335,-0.0299,-0.0265,-0.0241,-0.0188,-0.0105,-0.0058,-0.0111,0.0036,0.004,0.0023,0.0035,-0.0044,0.0062,0.0064,0.0066,0.0067,0,-0.0496,-0.0519,-0.0564,-0.0576,-0.0578,-0.0589,-0.0569,-0.0558,-0.0496,-0.0463,-0.0405,-0.0348,-0.0272,-0.0245,-0.0102,-0.0136,-0.006,0.0004,0.001,0.0017,0.0039,0.007,0.0084,0.0082,0.0081,0.008,0.0079,0,-0.0534,-0.0568,-0.0609,-0.0616,-0.0622,-0.0633,-0.0628,-0.0582,-0.0565,-0.0499,-0.0472,-0.0372,-0.0313,-0.0207,-0.0077,-0.0085,0.0083,0.0092,0.0149,0.0148,0.0155,0.0152,0.0191,0.019,0.019,0.019,0.019,0,-0.0575,-0.0607,-0.0638,-0.0662,-0.0702,-0.0683,-0.0697,-0.0672,-0.0621,-0.0589,-0.0509,-0.0451,-0.0299,-0.0184,-0.0078,0.0064,0.0088,0.0147,0.0176,0.0131,0.0124,0.0162,0.0157,0.0194,0.0193,0.0192,0.0191,0,-0.061,-0.0631,-0.0683,-0.0714,-0.0728,-0.0755,-0.0756,-0.0752,-0.0701,-0.0655,-0.0635,-0.0495,-0.0343,-0.0196,-0.0005,0.0064,0.0197,0.0241,0.0176,0.02,0.0224,0.0216,0.0309,0.0309,0.0309,0.0309,0.031,0,-0.063,-0.0665,-0.073,-0.0766,-0.0789,-0.0823,-0.0838,-0.0802,-0.0781,-0.0672,-0.0644,-0.0494,-0.0391,-0.0129,0.0014,0.021,0.0232,0.0287,0.0254,0.0218,0.0238,0.0229,0.022,0.031,0.031,0.031,0.031,0,-0.0666,-0.0697,-0.0739,-0.0818,-0.0861,-0.0893,-0.0904,-0.089,-0.082,-0.0781,-0.0625,-0.0483,-0.0308,-0.0116,0.0036,0.0174,0.0241,0.029,0.029,0.026,0.0221,0.0238,0.023,0.0311,0.0311,0.0311,0.0311,0,-0.0688,-0.0729,-0.0791,-0.0852,-0.0912,-0.0935,-0.0939,-0.0887,-0.0849,-0.0715,-0.066,-0.0466,-0.0339,-0.0133,0.0009,0.0138,0.0162,0.0185,0.0191,0.0191,0.0116,0.0048,0.0113,0,0,0,0,0,-0.07,-0.0746,-0.0814,-0.0878,-0.0937,-0.0961,-0.0964,-0.0947,-0.088,-0.0773,-0.0707,-0.0537,-0.0294,-0.0181,-0.0052,-0.0018,0.0155,0.0131,0.0176,0.0316,0.0315,0.0244,0,0,0,0,0,0,-0.0709,-0.0778,-0.0812,-0.0881,-0.0923,-0.0971,-0.0972,-0.0929,-0.085,-0.0764,-0.0625,-0.0531,-0.0293,-0.0363,-0.0054,-0.0015,0.0024,0.0253,0.0255,0.0316,0.0315,0.0314,0.0241,0,0,0,0,0]}]]